Weather in Lamu

Kenya     2°23′09″S   40°41′49″E
temp.,
°C
wind,
m/s
gust,
m/s
humid.,
%
clouds,
%
prec.,
mm/h
press.,
hPa
HPBL,
m
30 november, tue
tue3000:00+27e467911 0.1 1012500
03:00+27e458188 2.4 1010325
06:00+27ese4578100 1.6 1011504
09:00+28ese447398 1.8 1012672
12:00+28e5571100 1.6 1011566
15:00+29ese6669100 1.8 1009682
18:00+28ese567599 0.8 1010561
21:00+27e3478100 1.7 1012393
1 december, wed
wed100:00+27e4578100 1.1 1011441
03:00+26e4581100 2.4 1010261
06:00+27ese227880 1.1 1011319
09:00+28se227178 1.3 1012586
12:00+28ese437097 0.3 1011627
15:00+29se666921 0.4 1009669
18:00+28ese677693 0.0 1009646
21:00+28e577848 0.0 1011746
2 december, thu
thu200:00+27e467624 0.0 1011562
03:00+27e457648 0.0 1010603
06:00+26ese457918 1.8 1011281
09:00+28e337111 3.4 1013424
12:00+28se43676 0.5 1011639
15:00+29se54695 0.5 1009757
18:00+28se55745 0.0 1010686
21:00+28ese56795 0.1 1012625
3 december, fri
fri300:00+27se45765 0.0 1011543
03:00+27ese447634 0.0 1010513
06:00+27e237517 0.0 1012517
09:00+28sse227098 0.1 1013637
12:00+28s337012 0.1 1012646
15:00+28sse557013 0.2 1010675
18:00+28se457412 0.0 1011687
21:00+28ese457614 0.3 1013499
4 december, sat
sat400:00+27ese457687 0.0 1012551
03:00+27ese237415 0.0 1011467
06:00+27ese227583 0.0 1012481
09:00+28se216991 0.0 1014663
12:00+28sse326919 0.1 1012545
15:00+28ese556992 0.2 1010566
18:00+28e677497 0.0 1011606
21:00+28e577871 0.0 1013551